Regional Weather Roundup
Issued by NWS Green Bay, WI

Home | Current Version | Previous Version | Graphics & Text | Print | Product List | Glossary Off
Versions: 1 2 3 4 5 6 7 8 9 10 11 12 13 14 15 16 17 18 19 20 21 22 23 24 25 26 27 28 29 30 31 32 33 34 35 36 37 38 39 40 41 42 43 44 45 46 47 48 49 50

703
ASUS43 KGRB 101111
RWRGRB

NORTH-CENTRAL AND NORTHEAST WISCONSIN REGIONAL WEATHER ROUNDUP
NATIONAL WEATHER SERVICE GREEN BAY WI
500 AM CST WED FEB 10 2016

WIZ005-009-010>012-018-019-101200-
NORTH CENTRAL WISCONSIN

CITY           SKY/WX    TMP DP  RH WIND       PRES   REMARKS
IRONWOOD       CLOUDY     7   3  85 N6        29.95S WCI  -3
MANITOWISH WTR LGT SNOW   2  -1  83 NW7       29.92S WCI -10
ARBOR VITAE    LGT SNOW   6   0  78 N6        29.91F WCI  -5
EAGLE RIVER    CLOUDY     4  -6  63 N10       29.90S WCI -12
LAND O LAKES   LGT SNOW   4  -1  79 N7        29.91S WCI  -8
RHINELANDER    CLOUDY     4  -3  73 N5        29.91S WCI  -5
PHILLIPS       PTCLDY     1  -5  77 NW6       29.95F WCI -11
ANTIGO         CLOUDY     4  -4  68 N10       29.91S WCI -11
TOMAHAWK       CLOUDY     4  -2  76 NW6       29.94S WCI  -7
MERRILL        CLOUDY     6  -1  72 N6        29.95F WCI  -5
$$

WIZ013-073-101200-
NORTHEAST WISCONSIN

CITY           SKY/WX    TMP DP  RH WIND       PRES   REMARKS
IRON MOUNTAIN  PTCLDY     3  -5  69 NW13      29.91R WCI -14
MARINETTE      CLEAR      7  -6  56 NW8       29.93S WCI  -6
OCONTO         CLEAR      6  -4  63 NW3       29.97R
$$

WIZ017-030-035>037-045-101200-
CENTRAL WISCONSIN

CITY           SKY/WX    TMP DP  RH WIND       PRES   REMARKS
MEDFORD        CLOUDY     1  -4  78 NW6       29.94F WCI -10
WAUSAU         CLOUDY     8  -1  66 N8        29.94F WCI  -4
MOSINEE        NOT AVBL
MARSHFIELD     CLOUDY     5  -4  66 NW10      29.95F WCI -10
WISC RAPIDS    CLOUDY     7  -4  60 N8        29.99F WCI  -6
STEVENS POINT  CLOUDY     6  -3  68 NW8       29.97F WCI  -7
WAUPACA        CLOUDY    12  -3  51 NW10G16   29.98S WCI  -2
SHAWANO        CLOUDY    11  -3  54 N7        29.98R WCI   0
CLINTONVILLE   CLOUDY    10  -4  52 NW12      29.98R WCI  -4
WAUTOMA        CLOUDY     9  -2  61 NW9       29.99S WCI  -4
$$

WIZ038-039-048-051-101200-
FOX VALLEY

CITY           SKY/WX    TMP DP  RH WIND       PRES   REMARKS
NWS GREEN BAY  CLEAR      6  -6  57 NW12      29.96R WCI  -9
APPLETON       NOT AVBL
OSHKOSH        CLEAR      9  -3  58 NW12      29.96R WCI  -6
FOND DU LAC    CLEAR      9  -3  58 NW10      29.97R WCI  -5
$$

WIZ022-050-052-101200-
EAST CENTRAL WISCONSIN

CITY           SKY/WX    TMP DP  RH WIND       PRES   REMARKS
EPHRAIM        FAIR       8  -3  61 NW15G21   29.89R WCI -10
STURGEON BAY   PTCLDY     7  -8  51 NW15      29.94R WCI -11
MANITOWOC      CLEAR      8  -3  61 NW14      29.95R WCI  -8
SHEBOYGAN      CLEAR      8  -4  58 NW14      29.94R WCI  -8
$$

LMZ563-521-522-541>543-101200-
LAKESHORE

STATION/POSITION TIME  TEMP    WIND        PRES    VSBY  WAVE
                       AIR SEA DIR/SP/G                  HT/PER
                 (UTC) (F)     (DEG/KT/KT) (MB)    (MI)  (FT/S)
SHEBOYGAN LKSHOR 1100    9     320/ 13/ 15 1015.6R
KEWAUNEE LKSHORE 1000    8     320/  8/ 14 1012.7R
ALGOMA MARINA    1011          310/ 11/ 16   N/A
CHAMBERS ISLAND  1000    9     300/ 12/ 19 1012.9F
MENOMINEE LKSHOR 1000    8     300/ 11     1012.6S
$$




USA.gov is the U.S. government's official web portal to all federal, state and local government web resources and services.